Regional Weather Roundup
Issued by NWS Burlington, VT

Home | Current Version | Previous Version | Text Only | Print | Product List | Glossary On
Versions: 1 2 3 4 5 6 7 8 9 10 11 12 13 14 15 16 17 18 19 20 21 22 23 24 25 26 27 28 29 30 31 32 33 34 35 36 37 38 39 40 41 42 43 44 45 46 47 48 49 50
000
ASUS41 KBTV 022130
RWRBTV
VERMONT REGIONAL WEATHER ROUNDUP
NATIONAL WEATHER SERVICE BURLINGTON VT
500 PM EDT WED SEP 02 2015

NOTE: "FAIR" INDICATES FEW OR NO CLOUDS BELOW 12,000 FEET WITH NO
SIGNIFICANT WEATHER AND/OR OBSTRUCTIONS TO VISIBILITY.

* THESE REPORTS ARE NOT UNDER NWS QUALITY CONTROL AND/OR DO NOT
  REPORT WEATHER SUCH AS PRECIPITATION AND FOG.

VTZ001>019-022200-
_____VERMONT_____


CITY           SKY/WX    TMP DP  RH WIND       PRES   REMARKS
BURLINGTON     PTSUNNY   85  65  51 SW3       29.89F
MONTPELIER     MOSUNNY   79  64  60 VRB3      29.98F
MORRISVILLE    MOSUNNY   83  64  52 NE3       29.93F
ST. JOHNSBURY*   N/A     83  61  47 MISG      29.89F
LYNDONVILLE*   FAIR      79  64  60 W5        29.95F
MIDDLEBURY*    FAIR      85  62  45 CALM      29.90F
RUTLAND*       SUNNY    N/A N/A N/A MISG        N/A
SPRINGFIELD    SUNNY     86  61  42 W9        29.91F
HIGHGATE*      FAIR      81  70  69 CALM      29.89F
NEWPORT*       FAIR      77  67  70 W6        29.93F
BENNINGTON     SUNNY     84  64  50 VRB5      29.93F
SUTTON*          N/A     77 N/A N/A MISG        N/A
GALLUP MILLS*    N/A     77 N/A N/A MISG        N/A
MT. MANSFIELD*   N/A     66 N/A N/A NW14        N/A

_____LAKE CHAMPLAIN_____


CITY           SKY/WX    TMP DP  RH WIND       PRES   REMARKS
COLCHESTER RF*   N/A     79  70  73 W1          N/A
DIAMOND ISL*     N/A     81  66  61 N8          N/A

$$

NYZ007-026>031-035-052-083-022200-
_____NORTHERN NEW YORK_____


CITY           SKY/WX    TMP DP  RH WIND       PRES   REMARKS
PLATTSBURGH    PTSUNNY   81  67  62 VRB3      29.89F
SARANAC LAKE   PTSUNNY   79  63  57 VRB7      29.97F
MASSENA        MOSUNNY   80  69  69 SW7       29.92F
OGDENSBURG*    SUNNY     81  70  69 SW5       29.92S
POTSDAM*       SUNNY     79  73  83 SW6       29.93S
STARK FALLS*     N/A     79 N/A N/A W6          N/A
WATERTOWN      PTSUNNY   77  68  73 W6        29.94F HAZE
FT DRUM        PTSUNNY   78  68  71 W6        29.94F
ALBANY         MOSUNNY   87  65  47 W6        29.90F
GLENS FALLS    SUNNY     85  66  53 S7        29.89F

$$
NHZ002-005-011-022200-
_____NEW HAMPSHIRE_____


CITY           SKY/WX    TMP DP  RH WIND       PRES   REMARKS
LEBANON        SUNNY     87  66  49 CALM      29.89F
KEENE          SUNNY     84  66  54 SW5       29.90F
MT WASHINGTON  MOSUNNY   61  32  33 NW18        N/A
PLYMOUTH       FAIR      83  65  55 NW6       29.89S
WHITEFIELD     SUNNY     82  65  56 W6        29.92F

$$

_____REGIONAL QUEBEC LOCATIONS_____


CITY           SKY/WX    TMP DP  RH WIND       PRES   REMARKS
MONTREAL       PTSUNNY   77  68  73 W9        29.89F
QUEBEC CITY    PTSUNNY   77  70  78 SW12      29.84F
SHERBROOKE     MOSUNNY   79  68  69 SW6       29.90F

_____REGIONAL ONTARIO LOCATIONS_____


CITY           SKY/WX    TMP DP  RH WIND       PRES   REMARKS
OTTAWA         PTSUNNY   79  70  73 S6        29.91F

______KEY______
VSB  - VISIBILITY IN MILES
WCI  - WIND CHILL INDEX
HX   - HEAT INDEX
$$
NNNN


USA.gov is the U.S. government's official web portal to all federal, state and local government web resources and services.